Location: Waco, TX
(31.5480°N, 97.1670°W)
Time: 10:10:29
(UTC-05:00)

ISS - Pass Details

Date: 22 June 2018
Orbit: 402 x 406 km, 51.6° (Epoch: 20 June)

Event Time Altitude Azimuth Distance (km) Brightness Sun altitude
Rises 07:57:01 0° 197° (SSW) 2,307 -0.3 17.3°
Reaches altitude 10° 07:59:22 10° 181° (S) 1,452 -1.1 17.8°
Maximum altitude 08:01:58 22° 128° (SE) 937 -1.3 18.3°
Drops below altitude 10° 08:04:34 10° 75° (ENE) 1,460 1.5 18.9°
Sets 08:06:56 0° 60° (ENE) 2,323 1.5 19.3°
